Regional Weather Roundup
Issued by NWS State College, PA

Home | Current Version | Previous Version | Text Only | Print | Product List | Glossary On
Versions: 1 2 3 4 5 6 7 8 9 10 11 12 13 14 15 16 17 18 19 20 21 22 23 24 25 26 27 28 29 30 31 32 33 34 35 36 37 38 39 40 41 42 43 44 45 46 47 48 49 50
000
ASUS41 KCTP 252210
RWRCTP

REGIONAL WEATHER ROUNDUP
NATIONAL WEATHER SERVICE STATE COLLEGE PA
600 PM EDT SUN JUN 25 2017

Note: "fair" indicates few or no clouds below 12,000 feet with no
significant weather and/or obstructions to visibility.

* = STATION THAT DOES NOT REPORT PRECIPITATION /E.G. RAIN...SNOW...ETC/
    THUNDER OR FOG.

PAZ002>004-007>009-013>016-020>023-029>032-252300-
WESTERN PENNSYLVANIA

CITY           SKY/WX    TMP DP  RH WIND       PRES   REMARKS
ERIE           SUNNY     70  49  47 W13G25    30.02S
MEADVILLE      SUNNY     68  47  46 W10G25    30.04R
FRANKLIN*      PTSUNNY   70  46  43 W13G18    30.03R
NEW CASTLE     FAIR      71  45  39 W15       30.04R
BEAVER COUNTY  NOT AVBL
BUTLER*        PTSUNNY   72  50  46 W15       30.02F
PITTSBURGH INT PTSUNNY   72  48  42 W15G24    30.02F
PITTSBURGH     MOSUNNY   73  46  38 W14G24    30.02F
INDIANA*       PTSUNNY   72  48  43 W14G24    30.04F
LATROBE        MOSUNNY   73  48  40 SW12G23   30.04F
WASHINGTON CO* PTSUNNY   72  46  40 W9G16     30.07S
$$

PAZ004>006-010>012-017>019-024>028-033>037-041-042-045-046-049>053-252300-
CENTRAL PENNSYLVANIA

CITY           SKY/WX    TMP DP  RH WIND       PRES   REMARKS
BRADFORD       TSTM      58  52  80 SW8       30.02R
DUBOIS         MOSUNNY   69  45  41 W20G29    30.00F
CLEARFIELD     PTSUNNY   70  47  43 SW9       30.01S
JOHNSTOWN      PTSUNNY   67  44  43 W13G22    30.05F
ALTOONA        MOSUNNY   73  46  38 W12       30.03F
STATE COLLEGE  MOSUNNY   72  46  40 W17       29.99F
WILLIAMSPORT   MOSUNNY   77  46  33 W16G24    29.93S
SELINSGROVE    SUNNY     79  48  33 W8G18     29.95F
FT INDIANTOWN  MOSUNNY   80  51  36 W14       29.95S
CAPITAL CITY   MOSUNNY   82  45  27 W17G26    29.95S
HARRISBURG     PTSUNNY   79  55  43 W9        29.94S
YORK           PTSUNNY   80  53  39 W9G18     29.97R
$$

PAZ038>040-043-044-047-048-054-055-060>062-067>071-252300-
EASTERN PENNSYLVANIA

CITY           SKY/WX    TMP DP  RH WIND       PRES   REMARKS
SCRANTON       SUNNY     79  47  32 SW14G21   29.93F
MOUNT POCONO   PTSUNNY   70  48  45 W9        29.99S
ALLENTOWN      MOSUNNY   80  49  33 W14       29.93S
QUAKERTOWN*    MOCLDY    81  55  41 W7        29.95S
READING        MOSUNNY   81  56  42 W8        29.93S
LANCASTER      MOSUNNY   81  53  37 W20       29.95S
COATESVILLE    PTCLDY    79  54  41 W10       29.97S
POTTSTOWN      SUNNY     80  54  40 VRB7      29.95F
BLUE BELL      MOSUNNY   79  55  44 W7        29.94F
DOYLESTOWN     PTSUNNY   82  56  40 VRB7      29.93S
WILLOW GROVE   NOT AVBL
NORTH PHILA    MOSUNNY   85  58  39 MISG      29.93F
PHILADELPHIA   PTSUNNY   84  56  38 W14G20    29.93F
$$



USA.gov is the U.S. government's official web portal to all federal, state and local government web resources and services.